sat.trackr.live / text

‹ back to catalog

SDA_1682

NORAD 65992 · 2025-230U

PAYLOAD ACTIVE UNKNOWN

§ Identity

Operator
Country
US
Launch date
2025-10-15
Launch site
AFWTR
Launch vehicle
Mass (kg)
RCS (m²)

External: N2YO · Heavens-Above · Gunter

§ Orbital elements

Epoch: 2026-05-25T04:30:34.350048Z

Period
104.49 min
Inclination
81.3032°
Eccentricity
0.0001080
Mean motion
13.78090539 rev/d
Perigee alt
969.9 km
Apogee alt
971.5 km
Semi-major
7,348.8 km
B*
2.0637e-4
RAAN
233.6227°
Arg perigee
99.6302°
Mean anomaly
260.4973°
Rev number
3,059

§ Raw data

SDA_16821 65992U 25230U   26145.18789757  .00000219  00000+0  20637-3 0  99952 65992  81.3032 233.6227 0001080  99.6302 260.4973 13.78090539 30596

JSON: /api/v1/satellites/65992 · /tle

For live sub-satellite position, see the globe view (requires WebGL).

§ Visibility from observer

Set your observer location to see the next 7 days of passes ≥ 10°. The values pass through the URL so the page stays shareable.

No JS? Fill the form by hand. The geolocation button needs JavaScript.